Overview Statistics Trail Chart Weather Telemetry Raw packets
 

This is the latest recevied weather packets stored in our database for station/object KN6DHD. If no packets are shown the sender has not sent any weather packets the latest 10 day(s).

<< 90 91 92 93 94 95 96 >>
Time Temp. Humidity Pressure Rain* Wind** Luminosity Snow
1777078423 22.22° C 55% 1010.8 hPa 0 mm - 63 W/m² -
1777078122 21.67° C 55% 1010.9 hPa 0 mm - 185 W/m² -
1777077818 22.78° C 55% 1011 hPa 0 mm - 177 W/m² -
1777077516 22.22° C 54% 1010.7 hPa 0 mm - 47 W/m² -
1777077215 22.22° C 53% 1010.8 hPa 0 mm - 48 W/m² -
1777076914 22.22° C 55% 1010.9 hPa 0 mm - 50 W/m² -
1777076611 22.78° C 54% 1010.7 hPa 0 mm - 258 W/m² -
1777076306 22.78° C 52% 1010.8 hPa 0 mm - 282 W/m² -
1777076002 22.78° C 51% 1011.1 hPa 0 mm - 278 W/m² -
1777075698 23.33° C 52% 1011 hPa 0 mm - 295 W/m² -
1777075394 22.78° C 53% 1011 hPa 0 mm - 337 W/m² -
1777075091 22.78° C 54% 1010.8 hPa 0 mm - 427 W/m² -
1777074786 22.78° C 55% 1010.9 hPa 0 mm - 473 W/m² -
1777074482 23.33° C 55% 1011 hPa 0 mm - 487 W/m² -
1777074178 22.78° C 54% 1010.9 hPa 0 mm - 450 W/m² -
1777073875 22.78° C 54% 1011.1 hPa 0 mm - 417 W/m² -
1777073570 22.78° C 53% 1011.1 hPa 0 mm - 448 W/m² -
1777073266 22.22° C 55% 1011.4 hPa 0 mm - 456 W/m² -
1777072961 22.22° C 56% 1011.3 hPa 0 mm - 432 W/m² -
1777072658 22.78° C 58% 1011.2 hPa 0 mm - 365 W/m² -
1777072356 22.22° C 56% 1011.3 hPa 0 mm - 313 W/m² -
1777072056 22.78° C 56% 1011.5 hPa 0 mm - 371 W/m² -
1777071752 23.33° C 54% 1011.6 hPa 0 mm - 386 W/m² -
1777071449 22.78° C 54% 1011.3 hPa 0 mm - 484 W/m² -
1777071148 23.33° C 54% 1011.5 hPa 0 mm - 492 W/m² -

* Rain latest hour (hover to see other rain measurements)
** Current wind speed in m/s (hover to see current wind gust speed)